Location: F M Corners
(41.2198°N, 80.4709°W)
Time: 17:25:50
(UTC+00:00)

Cosmos 1825 - Pass Details

Date: 29 October 2020
Orbit: 502 x 508 km, 82.5° (Epoch: 28 November)

Event Time Altitude Azimuth Distance (km) Brightness Sun altitude
Rises 23:30:41 0° 3° (N) 2,620 5.7 -13.7°
Reaches altitude 10° 23:33:01 10° 14° (NNE) 1,729 4.6 -14.2°
Maximum altitude 23:36:21 29° 76° (ENE) 950 2.9 -14.8°
Enters shadow 23:36:53 28° 93° (E) 977 3.0 -14.9°
